Location: Complexul Astronomic Baia Mare
(47.6577°N, 23.5639°E)
Time: 05:52:48
(UTC+03:00)

ISS - Pass Details

Date: 10 March 2017
Orbit: 399 x 409 km, 51.6° (Epoch: 30 March)

Event Time Altitude Azimuth Distance (km) Brightness Sun altitude
Exits shadow 03:59:03 17° 80° (E) 1,132 -0.9 -28.5°
Drops below altitude 10° 03:59:58 10° 74° (ENE) 1,480 -0.1 -28.4°
Sets 04:02:06 0° 68° (ENE) 2,345 1.3 -28.1°
